CZ-4 DEB, 26191

Orbit data source: Space-Track

CZ-4 DEB, 26191 is space debris in SSO originally from a launch on Thu, 14 Oct 1999 UTC launched from the Taiyaun Space Center, China (TSC). Debris objects in space refer to the collection of defunct objects orbiting the Earth. Examples of debris include non-operational satellites, rocket bodies, and fragments generated from explosions, collisions, or faulty payload assembly.

Loading next visibility...
Identifier
26191, 1999-057CD
Orbit
SSO
Country
Flag of CNCN / PRC
Related business
Manufacturer
Unknown
Mission
Spacecraft
Bus & Motor
Unknown
Mass
Unknown
Launch date (UTC)
1999-10-14 (26 years ago)
Launch vehicle
Unknown
Launch site
Taiyaun Space Center, China (TSC)
Object type
Payload
Rocket body
Debris
Shape & HBR
Unknown shape, 0.1 m
Radar Cross Section
Small (<0.1 m²)

Expand to show TLE details & history
Last TLE update: 7 hours ago

TLE from 7 hours ago
0 CZ-4 DEB
1 26191U 99057CD  25293.12880345  .00003326  00000-0  86114-3 0  9998
2 26191  98.5758 349.7676 0089064  35.8215 353.1879 14.48178006343472
Epoch: 2025-10-20T03:05Z
TLE epoch observation values (Epoch: 2025-10-20T03:05:28.618Z)
Latitude
28.58126°
Longitude
-90.12422°
Altitude
672.285 km
Speed
7.557 km/s
True Right ascension
23h 00m 19s
True Declination
28° 26' 07"
Sunlit
Object was in full shadow at epoch
Visualization orbit readout
Latitude
Unknown
Longitude
Unknown
Altitude
Unknown
Speed
Unknown
Apparent Right ascension
Unknown
Apparent Declination
Unknown
Sunlit
N/A
Visualization observer readout
Local Sidereal Time
05:16:57
Azimuth
Unknown
Elevation
Unknown
Doppler factor
Unknown
Orbital elements
Apogee altitude
792.016 km
Perigee altitude
665.423 km
Semi-major axis
7,106.857 km
Eccentricity
0.00891
Inclination
98.5758°
RAAN
349.7676°
Arg. of periapsis
35.8215°
True anomaly
353.06549°
Mean anomaly
353.1879°
Eccentric anomaly
353.12683°
Mean motion
3.62265 °/min
Orbital period
99.37 mins
BSTAR
0.00086114
Loading maneuver chart data...
Computing Atmospheric mass density...

Documentation

Showing up to 5 results
|